sat.trackr.live / text

‹ back to catalog

STARLINK-11541 [DTC]

NORAD 63015 · 2025-032L

PAYLOAD ACTIVE UNKNOWN

§ Identity

Operator
Country
US
Launch date
2025-02-15
Launch site
AFETR
Launch vehicle
Mass (kg)
RCS (m²)

Purposes: comms

External: N2YO · Heavens-Above · Gunter

§ Orbital elements

Epoch: 2026-05-25T03:48:43.432128Z

Period
91.67 min
Inclination
43.0004°
Eccentricity
0.0001620
Mean motion
15.70887323 rev/d
Perigee alt
355.3 km
Apogee alt
357.5 km
Semi-major
6,734.5 km
B*
8.8706e-4
RAAN
94.1173°
Arg perigee
261.7401°
Mean anomaly
98.3283°
Rev number
7,425

§ Raw data

STARLINK-11541 [DTC]1 63015U 25032L   26145.15883602  .00115193  00000+0  88706-3 0  99992 63015  43.0004  94.1173 0001620 261.7401  98.3283 15.70887323 74258

JSON: /api/v1/satellites/63015 · /tle

For live sub-satellite position, see the globe view (requires WebGL).

§ Visibility from observer

Set your observer location to see the next 7 days of passes ≥ 10°. The values pass through the URL so the page stays shareable.

No JS? Fill the form by hand. The geolocation button needs JavaScript.